Flag for U.S.A. Weather past 2 weeks in Jacksonville, Florida, U.S.A.

Now
45 °F

Partly sunny.


Feels Like: 39 °F
Forecast: 42 / 61 °F
Wind: 12 mph from North

Location: Jacksonville Naval Air Station

Current Time: Jan 31, 2015 at 8:58:16 AM

Latest Report: Jan 31, 2015 at 7:53 AM


Visibility: 10 mi

Pressure: 30.30 "Hg

Humidity: 68%

Dew point: 35 °F

Location of JacksonvilleLocation

Historic Weather in Jacksonville — Graph

°F

Jacksonville temperature yesterday

Maximum temperature yesterday: 69 °F (at 2:53 PM)
Minimum temperature yesterday: 50 °F (at 4:53 AM)
Average temperature yesterday: 59 °F

Past Weeks' High & Low Weather Summary

 TemperatureHumidityPressure
High75 °F (Jan 21, 4:53 PM)87% (Jan 23, 4:53 PM)30.35 "Hg (Jan 23, 4:53 PM)
Low40 °F (Jan 29, 4:53 AM)19% (Jan 19, 1:53 PM)29.69 "Hg (Jan 24, 4:53 AM)
Average57 °F61%30.08 "Hg
* Reported Jan 16 6:53 AM — Jan 31 6:53 AM, Jacksonville, Weather by CustomWeather, © 2014

Note: Actual official high and low records may vary slightly from our data, if they occured in-between our weather recording intervals... More about our weather records

Advertising

Jacksonville weather history for previous 24 hours

 ConditionsComfort  
Time TempWeatherWind HumidityBarometerVisibility
6:53 AM
Jan 31
44 °FPassing clouds.6 mph68%30.29 "Hg10 mi
5:53 AM48 °FPassing clouds.10 mph61%30.27 "Hg10 mi
4:53 AM47 °FPassing clouds.12 mph54%30.27 "Hg10 mi
3:53 AM49 °FPassing clouds.15 mph50%30.27 "Hg10 mi
2:53 AM51 °FPassing clouds.14 mph46%30.27 "Hg10 mi
1:53 AM52 °FClear.14 mph45%30.26 "Hg10 mi
12:53 AM53 °FPassing clouds.13 mph43%30.27 "Hg10 mi
11:53 PM
Jan 30
54 °FPassing clouds.15 mph43%30.27 "Hg10 mi
10:53 PM55 °FPassing clouds.13 mph45%30.26 "Hg10 mi
9:53 PM56 °FPassing clouds.13 mph42%30.26 "Hg10 mi
8:53 PM56 °FPassing clouds.7 mph42%30.24 "Hg10 mi
7:53 PM59 °FPassing clouds.14 mph39%30.22 "Hg10 mi
6:53 PM61 °FPassing clouds.9 mph30%30.20 "Hg10 mi
5:53 PM63 °FPartly sunny.7 mph29%30.18 "Hg10 mi
4:53 PM67 °FPartly sunny.12 mph25%30.15 "Hg10 mi
3:53 PM69 °FScattered clouds.14 mph23%30.14 "Hg10 mi
2:53 PM69 °FScattered clouds.13 mph30%30.14 "Hg10 mi
1:53 PM68 °FScattered clouds.16 mph35%30.14 "Hg10 mi
12:53 PM68 °FScattered clouds.17 mph42%30.15 "Hg10 mi
11:53 AM65 °FScattered clouds.7 mph54%30.16 "Hg10 mi
10:53 AM63 °FBroken clouds.16 mph63%30.17 "Hg10 mi
9:53 AM61 °FMore clouds than sun.12 mph72%30.16 "Hg10 mi
8:53 AM59 °FMore clouds than sun.9 mph81%30.16 "Hg10 mi
Weather by CustomWeather, © 2014

See weather overviewHow to use our weather pages